Weather in Aleyskiy

Russia / Altai Krai     52°28′23″N   82°43′33″E
temp.,
°C
wind,
m/s
gust,
m/s
humid.,
%
clouds,
%
prec.,
mm/h
press.,
hPa
HPBL,
m
21 january, fri
fri2101:00−22ne2210094 0.0 103610
04:00−23ne2210099 0.0 103512
07:00−22ne22100100 0.0 103434
10:00−21ne3510099 0.0 103469
13:00−15ne369671 0.0 1032161
16:00−13ne37955 0.0 1030186
19:00−17nne369963 0.0 103067
22:00−18nne369937 0.0 103162
22 january, sat
sat2201:00−21ne2210055 0.0 103126
04:00−23ne2210081 0.0 103111
07:00−24n0110065 0.0 10339
10:00−24s0010099 0.0 10349
13:00−16ese119246 0.0 103385
16:00−14ene009316 0.0 103313
19:00−20e111005 0.0 10359
22:00−22ene00100100 0.0 10359
23 january, sun
sun2301:00−23se0010031 0.0 10359
04:00−24sse0010058 0.0 10369
07:00−24w0010074 0.0 10369
10:00−24nne0010044 0.0 10379
13:00−16e119436 0.0 103673
16:00−14sse00945 0.0 103515
19:00−20ne001005 0.0 10369
22:00−22w0010090 0.0 10369
24 january, mon
mon2401:00−22wsw11100100 0.0 10369
04:00−20wsw1199100 0.0 103613
07:00−16sw1196100 0.1 103649
10:00−15sw1196100 0.6 103674
13:00−12nw0191100 1.1 1036257
16:00−11nne1292100 0.3 1036254
19:00−13n0097100 0.5 103710
22:00−15nnw1198100 0.1 103710
25 january, tue
tue2501:00−15n239898 0.2 103749
04:00−18n239999 0.1 103745
07:00−22n22100100 0.1 103722
10:00−23n22100100 0.1 103829
13:00−17n119687 0.1 1037106
16:00−16nnw11957 0.0 103623
19:00−22wnw1110061 0.0 10379
22:00−25w1110096 0.0 10379